Waarnemingen

Advertentie
Mijn weer
Aachen-Orsbach, Duitsland (10505): temperatuur & dauwpunt: 14.08.2018 01:00:00 - 20.08.2018 01:00:00 (CEST)Aachen-Orsbach, Duitsland (10505): temperatuur 5cm & temperatuur -5cm: 14.08.2018 01:00:00 - 20.08.2018 01:00:00 (CEST)Aachen-Orsbach, Duitsland (10505): temperatuur -20cm & temperatuur -100cm: 14.08.2018 01:00:00 - 20.08.2018 01:00:00 (CEST)Aachen-Orsbach, Duitsland (10505): windsnelheid & windstoten: 14.08.2018 01:00:00 - 20.08.2018 01:00:00 (CEST)Aachen-Orsbach, Duitsland (10505): windrichting: 14.08.2018 01:00:00 - 20.08.2018 01:00:00 (CEST)Aachen-Orsbach, Duitsland (10505): luchtdruk: 14.08.2018 01:00:00 - 20.08.2018 01:00:00 (CEST)Aachen-Orsbach, Duitsland (10505): zicht: 14.08.2018 01:00:00 - 20.08.2018 01:00:00 (CEST)Aachen-Orsbach, Duitsland (10505): Zonneschijnduur: 14.08.2018 01:00:00 - 20.08.2018 01:00:00 (CEST)Aachen-Orsbach, Duitsland (10505): neerslag: 14.08.2018 01:00:00 - 20.08.2018 01:00:00 (CEST)
Datum & Tijd tt [°C] td [°C] tt 5cm [°C] tt -5cm [°C] tt -20cm [°C] tt -100cm [°C] ff [km/u] ff [kn] fx [km/u] fx [kn] dd ppp [hPa] vv [km] sd [min] rr [mm]
20.08.2018 01:00:00 19,4 15,5 18,9 20,4 22,0 19,0 13 7 17 9 ZW 1019,0 31 0 0,0
20.08.2018 00:00:00 18,8 15,5 17,7 20,8 22,2 19,0 10 5 16 9 WZW 1019,2 35 0 0,0
19.08.2018 23:00:00 20,0 15,6 19,1 21,6 22,4 19,0 11 6 18 10 WZW 1018,9 49 0 0,0
19.08.2018 22:00:00 20,3 15,6 19,5 22,6 22,4 19,0 14 7 23 13 W 1019,0 40 0 0,0
19.08.2018 21:00:00 21,6 15,9 20,8 24,0 22,3 19,0 16 9 25 14 W 1018,7 48 37 0,0
19.08.2018 20:00:00 23,3 15,5 23,4 25,4 22,1 19,0 19 11 29 16 W 1018,4 52 60 0,0
19.08.2018 19:00:00 24,7 15,2 25,8 26,8 21,8 19,0 21 11 33 18 W 1018,4 54 60 0,0
19.08.2018 18:00:00 24,5 14,4 26,5 27,9 21,4 19,0 21 12 34 18 WZW 1018,6 48 60 0,0
19.08.2018 17:00:00 24,3 13,8 27,6 28,3 20,9 19,0 18 10 36 19 WZW 1019,1 47 60 0,0
19.08.2018 16:00:00 24,1 13,6 27,7 28,1 20,4 19,0 22 12 35 19 ZW 1019,5 44 60 0,0
19.08.2018 15:00:00 23,0 13,4 26,5 27,5 19,9 19,0 20 11 35 19 WZW 1020,2 45 60 0,0
19.08.2018 14:00:00 21,5 13,3 25,3 26,3 19,5 19,0 22 12 36 19 ZW 1020,8 45 58 0,0
19.08.2018 13:00:00 20,3 13,0 23,9 24,2 19,2 19,0 21 11 31 17 WZW 1021,5 57 48 0,0
19.08.2018 12:00:00 19,7 12,6 22,7 22,1 19,0 19,0 21 11 32 17 WZW 1021,8 52 24 0,0
19.08.2018 11:00:00 19,2 12,8 21,8 20,1 18,9 19,0 21 12 33 18 ZW 1022,2 45 37 0,0
19.08.2018 10:00:00 17,3 13,4 18,8 17,8 19,0 19,0 16 9 20 11 ZW 1022,3 38 1 0,0
19.08.2018 09:00:00 16,2 13,4 16,8 16,6 19,1 19,0 13 7 20 11 ZZW 1022,4 34 0 0,0
19.08.2018 08:00:00 15,3 13,1 15,4 15,7 19,4 19,0 11 6 15 8 ZZW 1022,6 29 10 0,0
19.08.2018 07:00:00 13,8 12,4 12,7 15,3 19,6 19,0 12 7 14 8 ZZW 1022,7 34 0 0,0
19.08.2018 06:00:00 14,0 12,4 12,6 15,6 19,8 19,0 11 6 16 8 ZZW 1022,6 29 0 0,0
19.08.2018 05:00:00 14,3 12,5 12,9 16,0 20,1 19,0 11 6 15 8 ZZW 1022,7 31 0 0,0
19.08.2018 04:00:00 14,7 12,8 13,4 16,5 20,3 19,0 11 6 15 8 ZW 1022,8 28 0 0,0
19.08.2018 03:00:00 15,2 12,9 13,9 16,9 20,6 19,0 11 6 14 8 ZZW 1023,0 29 0 0,0
19.08.2018 02:00:00 15,3 13,0 14,0 17,5 20,9 19,0 10 6 12 7 ZZW 1023,4 26 0 0,0
19.08.2018 01:00:00 15,7 13,2 14,3 18,1 21,1 19,1 10 5 11 6 ZZW 1023,4 32 0 0,0
19.08.2018 00:00:00 15,8 13,1 13,7 18,8 21,3 19,1 8 4 8 5 ZW 1023,3 35 0 0,0
18.08.2018 23:00:00 17,0 13,2 15,3 19,6 21,5 19,1 7 4 14 7 WZW 1022,9 41 0 0,0
18.08.2018 22:00:00 16,9 13,2 15,6 20,6 21,6 19,1 10 5 14 8 W 1022,9 43 0 0,0
18.08.2018 21:00:00 18,6 13,4 17,6 22,1 21,6 19,1 11 6 16 9 WNW 1022,2 50 13 0,0
18.08.2018 20:00:00 20,4 13,0 20,4 23,7 21,4 19,1 15 8 25 13 WNW 1021,6 45 60 0,0
18.08.2018 19:00:00 22,0 12,4 23,2 25,2 21,1 19,1 16 9 26 14 W 1021,3 55 60 0,0
18.08.2018 18:00:00 22,5 10,9 25,3 26,3 20,7 19,1 16 9 27 15 WNW 1021,4 65 60 0,0
18.08.2018 17:00:00 22,7 11,0 25,8 26,7 20,3 19,1 15 8 27 15 W 1021,4 66 60 0,0
18.08.2018 16:00:00 21,9 10,6 26,0 26,5 19,8 19,1 16 9 29 16 W 1021,7 60 60 0,0
18.08.2018 15:00:00 21,9 11,6 25,3 25,4 19,4 19,1 15 8 25 14 W 1022,1 47 59 0,0
18.08.2018 14:00:00 21,5 12,0 24,5 24,3 19,0 19,1 18 10 27 15 W 1022,6 64 59 0,0
18.08.2018 13:00:00 19,7 11,7 22,4 23,2 18,7 19,1 16 8 27 14 WZW 1023,0 45 58 0,0
18.08.2018 12:00:00 18,8 11,9 21,6 22,1 18,5 19,1 11 6 21 11 WZW 1023,1 31 60 0,0
18.08.2018 11:00:00 17,3 11,4 20,0 20,0 18,4 19,1 8 4 19 11 WZW 1023,3 75 60 0,0
18.08.2018 10:00:00 16,0 11,4 17,5 17,7 18,4 19,1 12 7 17 9 W 1023,2 40 60 0,0
18.08.2018 09:00:00 14,7 11,6 15,3 15,7 18,6 19,1 13 7 16 9 ZW 1023,1 36 60 0,0
18.08.2018 08:00:00 13,6 11,3 13,5 14,1 18,9 19,1 10 5 13 7 ZW 1022,9 31 52 0,0
18.08.2018 07:00:00 12,2 10,8 10,4 13,7 19,1 19,1 9 5 11 6 ZW 1022,7 26 0 0,0
18.08.2018 06:00:00 12,9 10,8 10,6 14,2 19,4 19,1 8 4 14 7 ZW 1022,7 40 0 0,0
18.08.2018 05:00:00 12,4 10,9 10,3 14,7 19,7 19,1 10 6 11 6 ZZW 1022,5 38 0 0,0
18.08.2018 04:00:00 13,6 11,2 11,3 15,1 19,9 19,1 9 5 11 6 ZZW 1022,5 46 0 0,0
18.08.2018 03:00:00 13,1 10,9 10,8 15,6 20,2 19,1 9 5 11 6 ZW 1022,3 51 0 0,0
18.08.2018 02:00:00 14,0 11,4 11,8 16,3 20,5 19,1 5 3 8 5 WZW 1022,2 49 0 0,0
18.08.2018 01:00:00 14,8 11,5 12,0 16,9 20,7 19,1 2 1 11 6 WNW 1021,9 51 0 0,0
18.08.2018 00:00:00 16,1 11,7 14,4 17,8 20,9 19,1 8 5 13 7 NW 1021,7 52 0 0,0
17.08.2018 23:00:00 16,7 12,0 15,5 18,4 21,1 19,1 9 5 16 8 NW 1021,2 46 0 0,0
17.08.2018 22:00:00 17,5 12,6 15,9 19,5 21,2 19,2 5 3 9 5 WNW 1020,7 45 0 0,0
17.08.2018 21:00:00 18,4 13,1 16,3 20,5 21,2 19,2 4 2 8 5 W 1019,9 48 0 0,0
17.08.2018 20:00:00 20,4 10,3 19,8 21,8 21,1 19,2 6 3 14 8 NNO 1019,2 61 48 0,0
17.08.2018 19:00:00 21,1 10,1 23,0 22,8 20,9 19,2 8 4 19 11 N 1018,9 63 51 0,0
17.08.2018 18:00:00 21,1 11,4 24,5 23,8 20,6 19,2 14 8 21 11 N 1018,8 60 58 0,0
17.08.2018 17:00:00 20,9 12,0 23,9 22,9 20,4 19,2 13 7 26 14 WNW 1018,9 56 25 0,0
17.08.2018 16:00:00 19,4 12,8 20,9 23,5 20,2 19,2 12 6 23 12 NNW 1019,3 44 49 0,0
17.08.2018 15:00:00 18,6 13,2 21,5 21,4 20,2 19,2 12 6 21 11 N 1019,4 32 9 0,0
17.08.2018 14:00:00 17,5 15,5 19,2 20,1 20,2 19,2 11 6 18 10 WNW 1019,4 24 0 0,0
17.08.2018 13:00:00 16,5 16,0 17,5 19,3 20,2 19,2 11 6 18 10 NW 1019,2 26 0 0,0
17.08.2018 12:00:00 15,6 15,6 16,3 18,6 20,3 19,2 14 8 18 10 NNW 1018,9 3,5 0 0,1
17.08.2018 11:00:00 15,2 15,2 15,8 18,3 20,4 19,2 9 5 22 12 NNW 1018,6 8 0 0,0
17.08.2018 10:00:00 16,0 15,6 16,6 18,6 20,6 19,2 7 4 11 6 NW 1017,5 16 0 0,0
17.08.2018 09:00:00 15,5 15,5 16,1 17,9 20,8 19,2 4 2 18 10 O 1017,2 7 0 1,2
17.08.2018 08:00:00 15,5 15,5 15,7 17,7 21,0 19,2 6 4 24 13 N 1017,1 2,9 0 5,7
17.08.2018 07:00:00 15,7 15,7 15,5 18,4 21,2 19,2 7 4 19 10 WZW 1016,9 1,6 0 6,2
17.08.2018 06:00:00 16,4 15,1 16,2 18,8 21,4 19,3 11 6 19 10 N 1015,8 17 0 0,0
17.08.2018 05:00:00 16,4 15,1 15,6 19,0 21,6 19,3 11 6 29 16 N 1015,5 16 0 0,0
17.08.2018 04:00:00 16,9 15,4 16,6 19,2 21,9 19,3 20 11 30 16 NNW 1015,5 18 0 0,0
17.08.2018 03:00:00 16,7 15,4 16,0 19,4 22,1 19,3 16 8 21 11 NW 1014,9 8 0 0,0
17.08.2018 02:00:00 18,3 14,8 16,7 19,9 22,4 19,3 11 6 18 10 ONO 1014,0 16 0 0,0
17.08.2018 01:00:00 18,8 14,9 17,0 20,6 22,6 19,3 8 4 18 10 NO 1014,5 19 0 0,0
17.08.2018 00:00:00 19,8 15,2 18,0 21,3 22,8 19,3 11 6 16 9 NNO 1014,3 23 0 0,0
16.08.2018 23:00:00 20,7 14,4 18,1 22,3 23,0 19,3 7 4 13 7 NNO 1014,0 29 0 0,0
16.08.2018 22:00:00 22,1 14,8 19,6 23,4 23,0 19,3 8 4 13 7 NO 1013,9 35 0 0,0
16.08.2018 21:00:00 23,0 14,7 19,7 25,0 23,0 19,3 6 3 14 8 N 1013,5 42 15 0,0
16.08.2018 20:00:00 24,5 15,0 24,4 26,7 22,8 19,3 12 6 19 10 N 1013,1 40 58 0,0
16.08.2018 19:00:00 25,5 15,2 26,7 28,6 22,4 19,3 14 8 20 11 NW 1013,1 33 60 0,0
16.08.2018 18:00:00 26,4 14,6 29,3 29,9 21,9 19,3 10 5 22 12 NW 1013,3 41 60 0,0
16.08.2018 17:00:00 26,9 14,3 30,7 30,8 21,3 19,3 16 9 26 14 W 1013,7 43 60 0,0
16.08.2018 16:00:00 26,0 13,7 30,3 30,8 20,7 19,4 13 7 20 11 WZW 1014,0 73 60 0,0
16.08.2018 15:00:00 24,5 14,5 29,2 30,1 20,1 19,4 12 7 23 12 WZW 1014,7 39 60 0,0
16.08.2018 14:00:00 23,9 14,7 28,0 28,9 19,6 19,4 14 8 25 14 WZW 1015,4 47 60 0,0
16.08.2018 13:00:00 22,2 14,8 26,8 26,6 19,2 19,4 11 6 25 14 W 1015,9 40 59 0,0
16.08.2018 12:00:00 20,9 14,2 25,1 24,0 18,9 19,4 13 7 22 12 ZW 1016,5 35 45 0,0
16.08.2018 11:00:00 19,5 13,9 21,5 21,7 18,8 19,4 11 6 22 12 WZW 1017,0 35 18 0,0
16.08.2018 10:00:00 18,6 14,7 20,1 19,6 18,8 19,4 10 5 16 9 ZW 1017,3 28 34 0,0
16.08.2018 09:00:00 17,3 13,9 18,5 17,3 18,9 19,4 13 7 16 9 ZZW 1017,3 40 60 0,0
16.08.2018 08:00:00 16,0 13,6 16,0 15,5 19,1 19,4 12 6 16 9 ZZW 1017,8 42 56 0,0
16.08.2018 07:00:00 15,0 13,4 13,2 14,8 19,3 19,4 11 6 16 9 ZZW 1017,9 30 0 0,0
16.08.2018 06:00:00 14,7 13,5 12,5 14,9 19,5 19,4 11 6 14 8 ZZW 1017,8 27 0 0,0
16.08.2018 05:00:00 13,9 13,3 10,8 15,3 19,8 19,5 9 5 13 7 Z 1018,4 27 0 0,0
16.08.2018 04:00:00 14,5 13,6 12,5 15,8 20,0 19,5 11 6 13 7 Z 1018,7 24 0 0,0
16.08.2018 03:00:00 14,9 13,7 12,8 16,4 20,2 19,5 10 5 13 7 ZZW 1019,0 29 0 0,0
16.08.2018 02:00:00 15,3 13,5 13,5 17,0 20,5 19,5 10 5 13 7 ZZW 1019,1 35 0 0,0
16.08.2018 01:00:00 15,9 13,8 14,5 17,7 20,7 19,5 10 6 16 9 ZW 1019,3 38 0 0,0
16.08.2018 00:00:00 17,0 13,9 15,6 18,3 20,9 19,5 12 7 15 8 ZZW 1019,3 48 0 0,0
15.08.2018 23:00:00 16,8 14,3 15,0 19,2 21,0 19,5 11 6 12 6 ZZW 1019,3 49 0 0,0
15.08.2018 22:00:00 17,4 14,6 15,7 20,5 21,0 19,5 6 3 11 6 WZW 1019,3 50 0 0,0
15.08.2018 21:00:00 18,7 15,0 18,1 22,1 20,9 19,5 10 6 24 13 W 1019,1 63 42 0,0
15.08.2018 20:00:00 20,8 15,1 21,7 23,6 20,7 19,5 16 9 26 14 WNW 1018,9 63 21 0,0
15.08.2018 19:00:00 22,1 14,5 23,6 24,7 20,5 19,5 16 8 26 14 W 1018,8 53 46 0,0
15.08.2018 18:00:00 21,9 14,6 23,6 24,5 20,1 19,5 16 8 22 12 W 1019,1 61 0 0,0
15.08.2018 17:00:00 21,7 15,1 22,9 25,4 19,8 19,5 14 8 27 15 WZW 1019,3 47 5 0,0
15.08.2018 16:00:00 21,9 15,7 25,2 25,4 19,3 19,5 20 11 26 14 W 1019,4 59 9 0,0
15.08.2018 15:00:00 22,2 15,7 26,8 25,1 19,0 19,6 16 8 28 15 ZW 1019,6 34 35 0,0
15.08.2018 14:00:00 20,0 15,4 22,5 23,6 18,7 19,6 23 12 33 18 ZZW 1020,1 54 47 0,0
15.08.2018 13:00:00 19,2 15,5 21,6 20,5 18,6 19,6 23 13 31 17 ZW 1020,2 49 9 0,0
15.08.2018 12:00:00 18,1 15,6 20,1 18,9 18,5 19,6 23 12 33 18 ZW 1020,3 35 1 0,0
15.08.2018 11:00:00 17,3 15,6 18,7 17,9 18,5 19,6 21 11 31 17 ZW 1020,4 22 0 0,0
15.08.2018 10:00:00 16,5 15,0 17,3 16,9 18,5 19,6 23 13 31 17 ZW 1020,0 25 0 0,0
15.08.2018 09:00:00 16,0 14,8 16,4 16,0 18,6 19,6 23 13 32 17 ZW 1019,6 28 0 0,0
15.08.2018 08:00:00 14,8 13,8 14,9 15,3 18,8 19,6 24 13 31 17 ZW 1019,4 26 8 0,0
15.08.2018 07:00:00 14,2 13,2 13,5 14,8 18,9 19,6 18 10 25 13 ZW 1019,0 23 0 0,0
15.08.2018 06:00:00 14,3 13,1 13,3 15,0 19,1 19,6 16 8 18 10 ZW 1018,9 20 0 0,0
15.08.2018 05:00:00 14,2 13,1 13,0 15,5 19,2 19,6 13 7 16 9 ZW 1018,9 22 0 0,0
15.08.2018 04:00:00 15,9 13,2 14,9 16,2 19,4 19,6 10 6 18 10 WZW 1019,1 33 0 0,0
15.08.2018 03:00:00 16,2 13,2 15,8 16,2 19,5 19,6 11 6 16 9 WZW 1019,2 31 0 0,0
15.08.2018 02:00:00 15,3 13,6 14,5 16,1 19,7 19,6 10 5 14 7 ZW 1019,3 22 0 0,0
15.08.2018 01:00:00 15,6 13,7 14,5 16,6 19,8 19,7 10 5 12 7 ZW 1019,3 23 0 0,0
15.08.2018 00:00:00 15,8 14,1 14,2 17,1 19,9 19,7 8 4 14 7 ZW 1019,1 24 0 0,0
14.08.2018 23:00:00 16,8 13,7 15,4 17,8 20,0 19,7 11 6 17 9 W 1018,7 36 0 0,0
14.08.2018 22:00:00 17,9 16,0 17,4 18,4 20,1 19,7 10 5 14 8 W 1018,4 16 0 0,0
14.08.2018 21:00:00 17,9 16,3 17,1 19,0 20,1 19,7 8 4 15 8 W 1017,6 17 0 0,0
14.08.2018 20:00:00 18,9 16,1 18,6 19,6 20,0 19,7 11 6 23 12 W 1017,1 22 0 0,0
14.08.2018 19:00:00 19,4 15,8 19,5 20,0 20,0 19,7 16 9 22 12 W 1017,1 23 0 0,0
14.08.2018 18:00:00 19,4 16,0 20,0 20,1 19,9 19,7 15 8 28 15 WNW 1016,8 29 0 0,0
14.08.2018 17:00:00 18,8 16,5 19,8 20,0 19,9 19,7 13 7 32 17 WZW 1016,6 20 0 0,0
14.08.2018 16:00:00 19,0 16,4 19,2 19,8 19,8 19,7 23 12 37 20 W 1016,3 36 0 0,4
14.08.2018 15:00:00 17,7 16,4 17,4 20,1 19,7 19,7 28 15 40 22 WNW 1015,9 7 0 0,0
14.08.2018 14:00:00 19,5 15,6 19,8 20,3 19,6 19,7 14 8 29 16 W 1015,3 23 1 0,0
14.08.2018 13:00:00 18,9 15,9 19,6 20,5 19,5 19,7 18 10 32 18 WZW 1015,0 19 4 0,0
14.08.2018 12:00:00 19,2 16,2 20,7 19,3 19,5 19,7 20 11 34 18 WZW 1014,6 20 6 0,0
14.08.2018 11:00:00 17,4 16,2 17,5 18,1 19,6 19,7 22 12 29 16 W 1014,5 10 0 0,0
14.08.2018 10:00:00 16,5 15,9 17,0 17,4 19,6 19,7 17 9 27 14 WZW 1014,1 7 0 0,0
14.08.2018 09:00:00 15,6 15,6 15,6 16,9 19,7 19,7 18 10 29 16 WZW 1013,6 2,1 0 0,1
14.08.2018 08:00:00 15,4 15,2 15,2 16,8 19,9 19,8 17 9 31 17 WZW 1012,9 6 0 0,0
14.08.2018 07:00:00 15,5 14,9 15,5 16,8 20,0 19,8 16 9 29 15 WZW 1012,4 10 0 0,0
14.08.2018 06:00:00 15,6 14,5 15,6 16,9 20,1 19,8 16 8 25 13 WZW 1011,8 20 0 0,0
14.08.2018 05:00:00 15,8 14,5 15,7 17,0 20,2 19,8 19 10 34 18 WZW 1011,6 26 0 0,0
14.08.2018 04:00:00 16,0 14,4 15,9 17,1 20,4 19,8 18 10 31 17 WZW 1011,3 28 0 0,0
14.08.2018 03:00:00 16,4 14,6 16,3 17,3 20,5 19,8 18 10 31 17 WZW 1011,1 32 0 0,0
14.08.2018 02:00:00 16,7 15,0 16,5 17,4 20,7 19,8 18 10 32 18 WZW 1010,9 30 0 0,0
14.08.2018 01:00:00 16,7 15,3 16,2 17,4 20,9 19,8 21 11 29 16 WZW 1010,1 34 0 0,0

tt = temperatuur
td = dauwpunt
tt 5cm = temperatuur 5cm
tt -5cm = temperatuur -5cm
tt -20cm = temperatuur -20cm
tt -100cm = temperatuur -100cm
ff = windsnelheid
fx = windstoten
dd = windrichting
ppp = luchtdruk
vv = zicht
sd = Zonneschijnduur
rr = neerslag

Weerstations in de omgeving